User: anonymous   Login
Location: Gagetown
(45.7834°N, 66.1486°W)
Time: 21:18:08
(UTC+00:00)
Language:

LEMUR 2 THENICKMOLO - Orbit

View from above orbital plane
View from above orbital plane
View from above satellite
View from above satellite

Ground track
Ground track

The orbit data is extracted from the following two-line orbital elements,

1 43185U 18014F   22024.28692062  .00002353  00000-0  20495-3 0  9996
2 43185  97.6601 291.1590 0015236  68.6320 291.6527 14.97782216217314
Epoch (UTC): 24 January 2022 06:53:09
Eccentricity: 0.0015236
inclination: 97.6601°
perigee height: 563 km
apogee height: 584 km
right ascension of ascending node: 291.1590°
argument of perigee: 68.6320°
revolutions per day: 14.97782216
mean anomaly at epoch: 291.6527°
orbit number at epoch: 21731

The dashed part of the orbit path shows where the satellite is in the earth's shadow,  

DLR